Skip Page Navigation
NASA JPL Caltech
NASA Logo - Jet Propulsion Laboratory + View the NASA Portal
+ Near-Earth Object (NEO) Program
Search JPL
JPL Home Earth Solar System Stars & Galaxies Technology
JPL Solar System Dynamics
BODIES ORBITS EPHEMERIDES TOOLS PHYSICAL DATA DISCOVERY FAQ SITE MAP
JPL Small-Body Database Browser
Search: [ help ]  
152680 (1998 KJ9)
Classification: Apollo [NEO, PHA]          SPK-ID: 2152680
Ephemeris | Orbit Diagram | Orbital Elements | Physical Parameters | Discovery Circumstances | Close-Approach Data ]

[ show orbit diagram ]
Orbital Elements at Epoch 2456800.5 (2014-May-23.0) TDB
Reference: JPL 26 (heliocentric ecliptic J2000)
 Element Value Uncertainty (1-sigma)   Units 
e .6395819006162656 3.8009e-08  
a 1.447894818297263 5.082e-09 AU
q .521847498518257 5.5596e-08 AU
i 10.93379850538541 1.2758e-05 deg
node 98.69829345808841 3.1448e-05 deg
peri 259.9295673453568 3.0392e-05 deg
M 26.82209731145481 2.0617e-05 deg
tp 2456753.087355346833
(2014-Apr-05.58735535)
3.6204e-05 JED
period 636.3615744489408
1.74
3.3504e-06
9.173e-09
d
yr
n .5657161187203094 2.9784e-09 deg/d
Q 2.37394213807627 8.3324e-09 AU
  Orbit Determination Parameters
   # obs. used (total)      192  
   data-arc span      7706 days (21.10 yr)  
   first obs. used      1990-01-01  
   last obs. used      2011-02-06  
   planetary ephem.      DE431  
   SB-pert. ephem.      SB431-BIG16  
   condition code      0  
   fit RMS      .53817  
   data source      ORB  
   producer      Otto Matic  
   solution date      2013-Aug-05 09:28:46  

Additional Information
 Earth MOID = .00529291 AU 
 T_jup = 4.390 
[ show covariance matrix ]

Ephemeris | Orbit Diagram | Orbital Elements | Physical Parameters | Discovery Circumstances | Close-Approach Data ]

Physical Parameter Table
Parameter Symbol Value Units Sigma Reference Notes
absolute magnitude H 19.4 mag n/a MPO192326  

152680 (1998 KJ9)          Discovered 1998-May-27 by LINEAR at Socorro (704)
Reference: 20070402/Numbers.arcLast Updated: 2007-04-04

[ hide close-approach data ]
Close-Approach Data   ...sorted by Date/Time (TDB)
Date/Time (TDB) Time Uncertainty
(days_HH:MM)
Body Nominal Distance (AU) Minimum Distance (AU) Maximum Distance (AU) V-relative (km/s) V-infinity (km/s) JD (TDB) Time Uncertainty (minutes) Semi-major axis (km) Semi-minor axis (km) range-LOV angle (deg) N-sigma BP Orbit Ref. Reference Modified
1900-Jun-14 07:52 01:40 Earth 0.130821931933184 0.128020665824272 0.133669452645788 18.0109649428581 18.0098340838762 2415184.828084466 100.453232473251 142557.912726753 10.2748471030103 38.7581252111674 1013450.98381166 T 26 CATAB v2.0c-linF95 2013-Aug-05 09:28:48 2013-Aug-05 09:28
1900-Jul-07 04:08 01:55 Venus 0.0180959396595014 0.014236750278277 0.0220346963349617 21.40563569897 21.4000288796938 2415207.671980664 114.852552111621 185746.740973363 18.7999950577132 -17.7185086952219 39160.1638141945 T 26 CATAB v2.0c-linF95 2013-Aug-05 09:28:48 2013-Aug-05 09:28
1906-Jan-23 01:47 00:38 Earth 0.491481214774365 0.489421008262384 0.493541401374658 36.0338162575353 36.0336658061882 2417233.574269594 38.3497808207283 102612.428497414 5.16631752270099 -1.27139071791699 300434.22008683 T 26 CATAB v2.0c-linF95 2013-Aug-05 09:28:48 2013-Aug-05 09:28
1907-Sep-24 04:03 04:11 Earth 0.494934201944931 0.494933138397603 0.494935298595876 22.8833051361011 22.8830698759502 2417842.668461254 251.30959847955 5840.52187249989 8.99262098176688 89.5332264603685 7401596.27188369 T 26 CATAB v2.0c-linF95 2013-Aug-05 09:28:48 2013-Aug-05 09:28
1909-May-20 11:58 00:25 Earth 0.382228203180563 0.380975655027172 0.383480895881417 32.0095445014312 32.0093267246317 2418446.998533085 25.0478705603324 63248.9077513633 10.4476106630727 -12.6366530364877 1130161.93372653 T 26 CATAB v2.0c-linF95 2013-Aug-05 09:28:48 2013-Aug-05 09:28
1914-Dec-31 12:01 < 00:01 Earth 0.00155632250918535 0.00155335507922373 0.00155929063857437 21.1046741544276 21.0233964959433 2420498.000406460 0.0696587207396407 138.563188594627 11.1195091276496 19.4669300003041 5784.98819641858 T 26 CATAB v2.0c-linF95 2013-Aug-05 09:28:48 2013-Aug-05 09:28
1914-Dec-31 17:19 < 00:01 Moon 0.00181721080817237 0.00181452139414439 0.0018199019239255 21.1115373391645 21.1106830549386 2420498.221264480 0.0625038811650272 159.469645305864 12.5803575646785 33.4048303889718 11769.8672296734 T 26 CATAB v2.0c-linF95 2013-Aug-05 09:28:48 2013-Aug-05 09:28
1916-Jun-21 21:55 < 00:01 Earth 0.239571246169596 0.239567948758768 0.239574543619656 14.8558237277036 14.8550750552215 2421036.413432497 0.136125166516071 122.721721738416 9.25964220614859 29.4584687431677 1535597.67622387 T 26 CATAB v2.0c-linF95 2013-Aug-05 09:28:48 2013-Aug-05 09:28
1916-Jul-19 16:47 < 00:01 Venus 0.139446598721143 0.139443310167404 0.139449887325605 15.4953323693393 15.4943273504879 2421064.199183364 0.299087600147688 117.732870971304 9.53184149088732 14.7575557709923 484848.675891666 T 26 CATAB v2.0c-linF95 2013-Aug-05 09:28:48 2013-Aug-05 09:28
1921-Dec-23 19:33 < 00:01 Earth 0.154402526452559 0.154398102180215 0.154406950753919 16.5999767136253 16.5989371188817 2423047.314315693 0.103700136918742 168.766098759651 10.7389215283986 3.87421502867215 165141.723863037 T 26 CATAB v2.0c-linF95 2013-Aug-05 09:28:48 2013-Aug-05 09:28
1923-Jun-11 17:53 < 00:01 Earth 0.114089417189425 0.114086129384998 0.114092705116548 18.7111115669923 18.7098633735612 2423582.245177891 0.124623305518249 198.62760794135 10.9156630595218 48.620988809397 1008661.35936486 T 26 CATAB v2.0c-linF95 2013-Aug-05 09:28:48 2013-Aug-05 09:28
1928-Dec-11 02:14 < 00:01 Earth 0.303005305394793 0.303000258923399 0.303010351977362 12.4733100182955 12.47260501251 2425591.593085231 0.210533401304215 127.980882332758 8.98085850364878 10.340962307579 723254.366995398 T 26 CATAB v2.0c-linF95 2013-Aug-05 09:28:48 2013-Aug-05 09:28
1930-Jun-03 17:23 < 00:01 Earth 0.10089995776296 0.100896594821095 0.100903320875055 22.7339755990131 22.7328139977432 2426131.224515029 0.124774554191111 245.787746277814 11.3777516584526 -50.4376027081642 918518.731014805 T 26 CATAB v2.0c-linF95 2013-Aug-05 09:28:48 2013-Aug-05 09:28
1935-Nov-08 15:00 < 00:01 Earth 0.410904885759464 0.410902293009919 0.410907478606525 16.5865051446305 16.5861141945723 2428115.125120212 0.712199514635188 51.147115899286 9.24474630022995 44.277443753452 3918229.69326143 T 26 CATAB v2.0c-linF95 2013-Aug-05 09:28:48 2013-Aug-05 09:28
1937-May-27 00:39 < 00:01 Earth 0.224357419304844 0.224352100875956 0.224362737746284 27.0718411834672 27.0714024935567 2428680.526964624 0.120524502539009 271.311097808305 11.380746665427 -19.8219982426937 930464.337338303 T 26 CATAB v2.0c-linF95 2013-Aug-05 09:28:48 2013-Aug-05 09:28
1942-Oct-19 21:28 < 00:01 Earth 0.466304282344461 0.466303151646652 0.466305413062798 20.4266937681146 20.4264140324444 2430652.394665684 0.767727652696372 24.2619989362707 9.05157128247015 49.5277080654772 5400495.10945019 T 26 CATAB v2.0c-linF95 2013-Aug-05 09:28:48 2013-Aug-05 09:28
1944-May-19 13:36 < 00:01 Earth 0.365704066636564 0.365698815350888 0.365709317924321 31.4977690700477 31.4975377547436 2431230.066804601 0.106023671755039 263.96188318945 11.1371231966058 -12.1668280754028 993978.313038655 T 26 CATAB v2.0c-linF95 2013-Aug-05 09:28:48 2013-Aug-05 09:28
1949-Oct-03 02:50 < 00:01 Earth 0.493764900302659 0.493764652612254 0.493765147996271 22.5977356154348 22.5974968180789 2433192.618230468 0.741421152847597 16.2706904974716 8.81261892196305 66.976249653594 7098971.66533583 T 26 CATAB v2.0c-linF95 2013-Aug-05 09:28:48 2013-Aug-05 09:28
1963-Sep-02 21:44 < 00:01 Earth 0.489894524497205 0.489893916983087 0.48989513201408 22.3639579087913 22.3637147088496 2438275.405739551 0.530716339462859 36.0149085648068 6.42856265029113 67.1403912505602 9427989.7715925 T 26 CATAB v2.0c-linF95 2013-Aug-05 09:28:48 2013-Aug-05 09:28
1969-Jan-17 14:05 < 00:01 Earth 0.371879729208831 0.371876996906736 0.371882461510562 32.3188566171859 32.3186349224645 2440239.086936614 0.0570593388474228 134.72341502658 9.68074095082352 2.07812993664695 436749.575754529 T 26 CATAB v2.0c-linF95 2013-Aug-05 09:28:48 2013-Aug-05 09:28
1970-Aug-17 19:42 < 00:01 Earth 0.460344367753268 0.460343474839632 0.460345260675136 20.2388881435628 20.2386021567939 2440816.320508079 0.382727939819784 38.7726520237185 6.20391400900815 61.771192184713 8598097.50274197 T 26 CATAB v2.0c-linF95 2013-Aug-05 09:28:48 2013-Aug-05 09:28
1976-Jan-11 19:47 < 00:01 Earth 0.230103924658384 0.230102242154527 0.230105607161862 27.9493000764097 27.9488857709914 2442789.324370809 0.0404188226287923 81.3063300446192 9.89763701025757 4.67725374498969 471898.578106729 T 26 CATAB v2.0c-linF95 2013-Aug-05 09:28:48 2013-Aug-05 09:28
1977-Jul-30 12:33 < 00:01 Earth 0.407426980441649 0.407425989093664 0.407427971797787 17.0188592227709 17.0184749522858 2443355.022967917 0.218134001982026 34.7449561850022 6.15195041675759 52.0057708458581 6593388.19903658 T 26 CATAB v2.0c-linF95 2013-Aug-05 09:28:48 2013-Aug-05 09:28
1983-Jan-05 05:45 < 00:01 Earth 0.0914615465096334 0.0914609410357887 0.0914621519835479 23.7539702759432 23.7527438288471 2445339.739790181 0.0243815971691343 28.952398170727 10.6430902192221 15.3374157027586 514415.611941857 T 26 CATAB v2.0c-linF95 2013-Aug-05 09:28:48 2013-Aug-05 09:28
1984-Jul-07 08:47 < 00:01 Earth 0.323968108674471 0.323967233867614 0.323968983484352 13.8318864795033 13.8312918615533 2445888.866101959 0.0735565717918245 27.1742823943113 6.68686808675332 32.5112570888136 3250900.41526604 T 26 CATAB v2.0c-linF95 2013-Aug-05 09:28:48 2013-Aug-05 09:28
1989-Dec-30 08:22 < 00:01 Earth 0.0302249584601469 0.0302238333185586 0.0302260836025747 20.1981859602871 20.1938209908486 2447890.848612747 0.0315421799535619 48.6559362041049 11.7598125020462 -0.422229164573562 81284.2862846316 T 26 CATAB v2.0c-linF95 2013-Aug-05 09:28:48 2013-Aug-05 09:28
